St. Francis, KS

7:39 PM CDT on August 17, 2017 (GMT -0500)
Cheyenne County Municipal

Weather History for KSYF - January, 2014

Change the Weather History Date:

Thursday, January 2, 2014

  Actual Average Record
Temperature  
Mean Temperature 30 °F -  
Max Temperature 44 °F 40 °F 46 °F (2016)
Min Temperature 15 °F 13 °F 3 °F (2015)
Degree Days  
Heating Degree Days 36    
Moisture  
Dew Point 15 °F    
Average Humidity 62    
Maximum Humidity 91    
Minimum Humidity 29    
Precipitation  
Precipitation 0.00 in - - ()
Sea Level Pressure  
Sea Level Pressure 30.22 in    
Wind  
Wind Speed 9 mph (SW)    
Max Wind Speed 14 mph    
Max Gust Speed 17 mph    
Visibility 10 miles    
Events      
Averages and records for this station are not official NWS values.
T = Trace of Precipitation, MM = Missing Value Source: NWS Daily Summary

Daily Weather History Graph

Daily Weather History Graph

Search for Another Location

Airport or City:

Trip Planner

Search our weather history database for the weather conditions in past years. The results will help you decide how hot, cold, wet, or windy it might be!

Date:

Astronomy

Jan. 02, 2014 Rise Set
Actual Time 8:08 AM CST 5:34 PM CST
Civil Twilight 7:38 AM CST 6:04 PM CST
Nautical Twilight 7:04 AM CST 6:38 PM CST
Astronomical Twilight 6:31 AM CST 7:11 PM CST
Moon 8:51 AM CST (1/2) 7:33 PM CST (1/2)
Length of Visible Light 10h 26m
Length of Day
9h 25m
Waxing Crescent, 3% of the Moon is Illuminated
Jan 2
Waxing Crescent
Jan 7
First Quarter
Jan 15
Full
Jan 23
Last Quarter
Jan 30
New

Hourly Weather History & Observations

Time (CST) Temp. Windchill Dew Point Humidity Pressure Visibility Wind Dir Wind Speed Gust Speed Precip Events Conditions
12:35 AM 20.3 °F 9.8 °F 18.0 °F 91% 30.29 in 10.0 mi WSW 9.2 mph - N/A   Unknown
12:55 AM 19.2 °F 9.3 °F 16.7 °F 90% 30.28 in 10.0 mi WSW 8.1 mph - N/A   Clear
1:15 AM 19.9 °F 9.3 °F 17.2 °F 89% 30.28 in 10.0 mi WSW 9.2 mph - N/A   Clear
1:35 AM 19.4 °F 8.6 °F 16.9 °F 90% 30.28 in 10.0 mi SW 9.2 mph - N/A   Clear
1:55 AM 19.4 °F 10.4 °F 16.9 °F 90% 30.28 in 10.0 mi WSW 6.9 mph - N/A   Clear
2:15 AM 18.5 °F 9.3 °F 15.8 °F 89% 30.28 in 10.0 mi WSW 6.9 mph - N/A   Clear
2:35 AM 18.3 °F 9.1 °F 15.6 °F 89% 30.28 in 10.0 mi WSW 6.9 mph - N/A   Clear
2:55 AM 18.9 °F 6.5 °F 16.3 °F 90% 30.28 in 10.0 mi SW 11.5 mph - N/A   Clear
3:15 AM 19.9 °F 6.7 °F 16.7 °F 87% 30.28 in 10.0 mi WSW 13.8 mph - N/A   Scattered Clouds
3:35 AM 19.9 °F 7.3 °F 16.5 °F 87% 30.27 in 10.0 mi WSW 12.7 mph - N/A   Mostly Cloudy
3:55 AM 19.0 °F 6.8 °F 15.6 °F 87% 30.26 in 10.0 mi WSW 11.5 mph - N/A   Mostly Cloudy
4:15 AM 17.6 °F 5.7 °F 14.2 °F 86% 30.26 in 10.0 mi WSW 10.4 mph - N/A   Scattered Clouds
4:35 AM 17.6 °F 5.7 °F 13.8 °F 85% 30.26 in 10.0 mi WSW 10.4 mph - N/A   Scattered Clouds
4:55 AM 17.2 °F 4.5 °F 13.5 °F 85% 30.26 in 10.0 mi WSW 11.5 mph - N/A   Scattered Clouds
5:15 AM 17.1 °F 4.3 °F 13.1 °F 84% 30.26 in 10.0 mi WSW 11.5 mph - N/A   Clear
5:35 AM 17.1 °F 4.3 °F 13.1 °F 84% 30.26 in 10.0 mi SW 11.5 mph - N/A   Clear
5:55 AM 17.4 °F 4.1 °F 13.5 °F 84% 30.25 in 10.0 mi WSW 12.7 mph - N/A   Clear
6:15 AM 16.7 °F 7.2 °F 12.9 °F 85% 30.26 in 10.0 mi WSW 6.9 mph - N/A   Clear
6:35 AM 16.3 °F 5.7 °F 12.6 °F 85% 30.26 in 10.0 mi WSW 8.1 mph - N/A   Clear
6:55 AM 16.0 °F 3.6 °F 12.4 °F 86% 30.26 in 10.0 mi WSW 10.4 mph - N/A   Clear
7:15 AM 15.8 °F 4.2 °F 12.0 °F 85% 30.26 in 10.0 mi WSW 9.2 mph - N/A   Clear
7:35 AM 15.8 °F 4.2 °F 12.0 °F 85% 30.26 in 10.0 mi WSW 9.2 mph - N/A   Clear
7:55 AM 15.8 °F 3.4 °F 12.0 °F 85% 30.26 in 10.0 mi WSW 10.4 mph - N/A   Clear
8:15 AM 16.7 °F 3.2 °F 12.4 °F 83% 30.26 in 10.0 mi SW 12.7 mph - N/A   Clear
8:35 AM 17.4 °F 4.7 °F 12.9 °F 83% 30.26 in 10.0 mi SW 11.5 mph - N/A   Clear
8:55 AM 18.5 °F 6.1 °F 13.6 °F 81% 30.26 in 10.0 mi WSW 11.5 mph - N/A   Clear
9:15 AM 19.6 °F 7.4 °F 14.4 °F 80% 30.27 in 10.0 mi WSW 11.5 mph - N/A   Clear
9:35 AM 21.0 °F 9.3 °F 15.4 °F 79% 30.28 in 10.0 mi WSW 11.5 mph - N/A   Clear
9:55 AM 23.0 °F 12.4 °F 17.1 °F 78% 30.28 in 10.0 mi WSW 10.4 mph - N/A   Clear
10:15 AM 25.5 °F 15.5 °F 18.5 °F 75% 30.28 in 10.0 mi WSW 10.4 mph - N/A   Clear
10:35 AM 28.9 °F 21.1 °F 21.0 °F 72% 30.29 in 10.0 mi WSW 8.1 mph - N/A   Clear
10:55 AM 32.7 °F 25.0 °F 23.4 °F 68% 30.29 in 10.0 mi WSW 9.2 mph - N/A   Clear
11:15 AM 35.8 °F 29.4 °F 23.0 °F 60% 30.29 in 10.0 mi WSW 8.1 mph - N/A   Clear
11:35 AM 40.1 °F 32.7 °F 20.7 °F 46% 30.28 in 10.0 mi West 12.7 mph 17.3 mph N/A   Clear
11:55 AM 41.7 °F 35.6 °F 18.3 °F 39% 30.28 in 10.0 mi NW 10.4 mph - N/A   Clear
12:15 PM 42.4 °F 37.5 °F 17.2 °F 36% 30.26 in 10.0 mi NW 8.1 mph - N/A   Clear
12:35 PM 43.2 °F 37.9 °F 16.0 °F 33% 30.25 in 10.0 mi NW 9.2 mph - N/A   Clear
12:55 PM 43.5 °F 39.4 °F 14.5 °F 31% 30.25 in 10.0 mi NW 6.9 mph - N/A   Clear
1:15 PM 43.7 °F 39.7 °F 12.9 °F 29% 30.24 in 10.0 mi NNW 6.9 mph - N/A   Clear
1:35 PM 43.9 °F 40.5 °F 14.7 °F 31% 30.22 in 10.0 mi NNW 5.8 mph - N/A   Clear
1:55 PM 43.5 °F 40.9 °F 15.4 °F 32% 30.21 in 10.0 mi North 4.6 mph - N/A   Clear
2:15 PM 44.2 °F 39.7 °F 16.5 °F 33% 30.20 in 10.0 mi West 8.1 mph - N/A   Clear
2:35 PM 44.6 °F 42.2 °F 16.2 °F 32% 30.20 in 10.0 mi North 4.6 mph - N/A   Clear
2:55 PM 44.2 °F 41.0 °F 15.8 °F 32% 30.20 in 10.0 mi SSW 5.8 mph - N/A   Clear
3:15 PM 44.2 °F - 14.5 °F 30% 30.20 in 10.0 mi Calm Calm - N/A   Clear
3:35 PM 44.1 °F - 14.5 °F 30% 30.19 in 10.0 mi Calm Calm - N/A   Clear
3:55 PM 44.6 °F 42.2 °F 14.2 °F 29% 30.19 in 10.0 mi SW 4.6 mph - N/A   Clear
4:15 PM 44.6 °F 41.4 °F 14.5 °F 30% 30.19 in 10.0 mi SW 5.8 mph - N/A   Clear
4:35 PM 44.2 °F 41.0 °F 14.4 °F 30% 30.19 in 10.0 mi SW 5.8 mph - N/A   Clear
4:55 PM 43.2 °F 40.5 °F 14.4 °F 31% 30.18 in 10.0 mi South 4.6 mph - N/A   Clear
5:15 PM 42.1 °F 40.2 °F 14.5 °F 33% 30.18 in 10.0 mi SSW 3.5 mph - N/A   Clear
5:35 PM 40.3 °F - 14.5 °F 35% 30.17 in 10.0 mi Calm Calm - N/A   Clear
5:55 PM 37.4 °F 33.8 °F 14.2 °F 39% 30.17 in 10.0 mi South 4.6 mph - N/A   Clear
6:15 PM 35.4 °F 29.7 °F 14.9 °F 43% 30.17 in 10.0 mi South 6.9 mph - N/A   Clear
6:35 PM 32.2 °F 25.0 °F 15.1 °F 49% 30.17 in 10.0 mi South 8.1 mph - N/A   Clear
6:55 PM 33.1 °F 24.9 °F 14.9 °F 47% 30.15 in 10.0 mi South 10.4 mph - N/A   Clear
7:15 PM 31.1 °F 22.4 °F 14.4 °F 50% 30.15 in 10.0 mi South 10.4 mph - N/A   Clear
7:35 PM 30.9 °F 21.7 °F 14.2 °F 50% 30.15 in 10.0 mi South 11.5 mph - N/A   Clear
7:55 PM 31.5 °F 21.4 °F 14.0 °F 49% 30.15 in 10.0 mi South 13.8 mph - N/A   Clear
8:15 PM 32.9 °F 23.7 °F 14.0 °F 46% 30.14 in 10.0 mi South 12.7 mph - N/A   Clear
8:35 PM 30.4 °F 23.6 °F 13.8 °F 50% 30.14 in 10.0 mi SSW 6.9 mph - N/A   Clear
8:55 PM 29.1 °F 19.4 °F 14.7 °F 55% 30.13 in 10.0 mi South 11.5 mph - N/A   Clear
9:15 PM 27.5 °F 20.2 °F 14.7 °F 59% 30.14 in 10.0 mi SSW 6.9 mph - N/A   Clear
9:35 PM 28.4 °F 21.2 °F 15.3 °F 58% 30.13 in 10.0 mi SSW 6.9 mph - N/A   Clear
9:55 PM 26.1 °F 16.2 °F 14.4 °F 61% 30.12 in 10.0 mi South 10.4 mph - N/A   Clear
10:15 PM 24.4 °F 14.9 °F 14.0 °F 65% 30.10 in 10.0 mi South 9.2 mph - N/A   Clear
10:35 PM 24.6 °F 17.7 °F 14.5 °F 66% 30.10 in 10.0 mi SSW 5.8 mph - N/A   Clear
10:55 PM 24.1 °F 18.2 °F 14.4 °F 66% 30.09 in 10.0 mi South 4.6 mph - N/A   Clear
11:15 PM 27.0 °F 18.0 °F 15.8 °F 63% 30.08 in 10.0 mi SSW 9.2 mph - N/A   Clear
11:35 PM 26.2 °F 18.6 °F 15.8 °F 65% 30.07 in 10.0 mi South 6.9 mph - N/A   Clear
11:55 PM 27.0 °F 16.7 °F 16.3 °F 64% 30.06 in 10.0 mi South 11.5 mph - N/A   Clear